When you browse on this site, cookies collect data to enhance your experience and personalize the content and advertising you see.
Visit our Privacy Policy to learn more. By continuing to use the site, you agree to this use of cookies and data.
  • Em Portugal
  • Lista de países
  • Para 7 dias
  • Temperatura da água
  • Mapas de satélite
  • Mapa do tempo
  • Widgets de tempo
  • user-avatar
    Iniciar Sessão

    Previsão horária em Hatetskoe

    Hoje, 20 Junho, Quinta-feira

    Tempo Temperatura Precipitação Vento Pressão Humidade
    00:00 +19°C° 0 mm 1 m/s 750 mmHg 80%
    01:00 +19°C° 0 mm 1 m/s 750 mmHg 82%
    02:00 +18°C° 0 mm 2 m/s 749 mmHg 80%
    03:00 +18°C° 0 mm 2 m/s 749 mmHg 81%
    04:00 +18°C° 0 mm 2 m/s 749 mmHg 82%
    05:00 +18°C° 0 mm 2 m/s 749 mmHg 82%
    06:00 +20°C° 0 mm 2 m/s 749 mmHg 80%
    07:00 +23°C° 0 mm 2 m/s 749 mmHg 78%
    08:00 +24°C° 0 mm 2 m/s 750 mmHg 76%
    09:00 +25°C° 0.3 mm 3 m/s 749 mmHg 70%
    10:00 +27°C° 0.3 mm 3 m/s 749 mmHg 65%
    11:00 +28°C° 0.3 mm 4 m/s 749 mmHg 60%
    12:00 +28°C° 0.1 mm 4 m/s 749 mmHg 58%
    13:00 +29°C° 0.1 mm 4 m/s 749 mmHg 56%
    14:00 +29°C° 0.1 mm 4 m/s 749 mmHg 54%
    15:00 +29°C° 0.2 mm 4 m/s 749 mmHg 59%
    16:00 +28°C° 0.2 mm 4 m/s 749 mmHg 63%
    17:00 +28°C° 0.2 mm 3 m/s 748 mmHg 68%
    18:00 +26°C° 0.3 mm 3 m/s 748 mmHg 73%
    19:00 +25°C° 0.3 mm 3 m/s 748 mmHg 78%
    20:00 +24°C° 0.3 mm 3 m/s 748 mmHg 84%
    21:00 +22°C° 0.2 mm 3 m/s 748 mmHg 85%
    22:00 +22°C° 0.2 mm 3 m/s 748 mmHg 86%
    23:00 +21°C° 0.2 mm 3 m/s 749 mmHg 88%

    Amanhã, 21 Junho, Sexta-feira

    Tempo Temperatura Precipitação Vento Pressão Humidade
    00:00 +21°C° 0.4 mm 3 m/s 749 mmHg 88%
    01:00 +20°C° 0.4 mm 3 m/s 749 mmHg 89%
    02:00 +20°C° 0.4 mm 3 m/s 749 mmHg 90%
    03:00 +20°C° 0.1 mm 3 m/s 749 mmHg 89%
    04:00 +20°C° 0.1 mm 3 m/s 749 mmHg 89%
    05:00 +20°C° 0.1 mm 3 m/s 749 mmHg 89%
    06:00 +21°C° 0 mm 3 m/s 749 mmHg 84%
    07:00 +24°C° 0 mm 3 m/s 749 mmHg 78%
    08:00 +25°C° 0 mm 4 m/s 750 mmHg 73%
    09:00 +27°C° 0 mm 4 m/s 750 mmHg 68%
    10:00 +28°C° 0 mm 5 m/s 749 mmHg 62%
    11:00 +29°C° 0 mm 5 m/s 749 mmHg 57%
    12:00 +30°C° 0.2 mm 5 m/s 749 mmHg 56%
    13:00 +30°C° 0.2 mm 5 m/s 749 mmHg 55%
    14:00 +30°C° 0.2 mm 5 m/s 749 mmHg 55%
    15:00 +30°C° 0.4 mm 4 m/s 749 mmHg 58%
    16:00 +30°C° 0.4 mm 4 m/s 749 mmHg 60%
    17:00 +29°C° 0.4 mm 3 m/s 749 mmHg 63%
    18:00 +28°C° 0.2 mm 3 m/s 748 mmHg 68%
    19:00 +26°C° 0.2 mm 3 m/s 748 mmHg 74%
    20:00 +25°C° 0.2 mm 3 m/s 748 mmHg 79%
    21:00 +24°C° 0.1 mm 3 m/s 749 mmHg 80%
    22:00 +22°C° 0.1 mm 3 m/s 749 mmHg 81%
    23:00 +21°C° 0.1 mm 3 m/s 749 mmHg 82%

    Depois de amanhã, 22 Junho, Sábado

    Tempo Temperatura Precipitação Vento Pressão Humidade
    00:00 +21°C° 0 mm 3 m/s 749 mmHg 82%
    01:00 +20°C° 0 mm 3 m/s 749 mmHg 81%
    02:00 +20°C° 0 mm 3 m/s 749 mmHg 81%
    03:00 +20°C° 0 mm 3 m/s 749 mmHg 81%
    04:00 +20°C° 0 mm 3 m/s 749 mmHg 82%
    05:00 +20°C° 0 mm 3 m/s 749 mmHg 82%
    06:00 +21°C° 0 mm 3 m/s 749 mmHg 77%
    07:00 +24°C° 0 mm 3 m/s 750 mmHg 72%
    08:00 +26°C° 0 mm 3 m/s 750 mmHg 67%
    09:00 +27°C° 0 mm 3 m/s 750 mmHg 62%
    10:00 +29°C° 0 mm 4 m/s 750 mmHg 57%
    11:00 +30°C° 0 mm 4 m/s 750 mmHg 52%
    12:00 +30°C° 0.1 mm 4 m/s 749 mmHg 51%
    13:00 +32°C° 0.1 mm 4 m/s 749 mmHg 50%
    14:00 +32°C° 0.1 mm 4 m/s 749 mmHg 50%
    15:00 +31°C° 0 mm 3 m/s 749 mmHg 52%
    16:00 +31°C° 0 mm 3 m/s 749 mmHg 55%
    17:00 +30°C° 0 mm 2 m/s 749 mmHg 57%
    18:00 +29°C° 0.2 mm 2 m/s 749 mmHg 62%
    19:00 +27°C° 0.2 mm 2 m/s 749 mmHg 67%
    20:00 +25°C° 0.2 mm 2 m/s 749 mmHg 72%
    21:00 +24°C° 0.1 mm 2 m/s 749 mmHg 73%
    22:00 +24°C° 0.1 mm 2 m/s 749 mmHg 74%
    23:00 +23°C° 0.1 mm 2 m/s 750 mmHg 74%

    23 Junho, Domingo

    Tempo Temperatura Precipitação Vento Pressão Humidade
    00:00 +23°C° 0 mm 2 m/s 750 mmHg 76%
    01:00 +23°C° 0 mm 1 m/s 750 mmHg 78%
    02:00 +22°C° 0 mm 1 m/s 750 mmHg 79%
    03:00 +22°C° 0 mm 1 m/s 750 mmHg 80%
    04:00 +21°C° 0 mm 2 m/s 750 mmHg 81%
    05:00 +21°C° 0 mm 2 m/s 750 mmHg 82%
    06:00 +24°C° 0 mm 2 m/s 750 mmHg 77%
    07:00 +25°C° 0 mm 2 m/s 750 mmHg 71%
    08:00 +27°C° 0 mm 2 m/s 750 mmHg 66%
    09:00 +28°C° 0.1 mm 3 m/s 750 mmHg 61%
    10:00 +29°C° 0.1 mm 3 m/s 751 mmHg 56%
    11:00 +30°C° 0.1 mm 4 m/s 751 mmHg 52%
    12:00 +31°C° 0 mm 3 m/s 751 mmHg 51%
    13:00 +31°C° 0 mm 3 m/s 751 mmHg 51%
    14:00 +31°C° 0 mm 3 m/s 751 mmHg 50%
    15:00 +30°C° 0.3 mm 3 m/s 750 mmHg 56%
    16:00 +28°C° 0.3 mm 3 m/s 750 mmHg 62%
    17:00 +27°C° 0.3 mm 3 m/s 750 mmHg 68%
    18:00 +26°C° 0.6 mm 3 m/s 750 mmHg 72%
    19:00 +24°C° 0.6 mm 2 m/s 751 mmHg 76%
    20:00 +23°C° 0.6 mm 2 m/s 751 mmHg 80%
    21:00 +23°C° 0.4 mm 2 m/s 751 mmHg 83%
    22:00 +21°C° 0.4 mm 2 m/s 751 mmHg 85%
    23:00 +20°C° 0.4 mm 2 m/s 751 mmHg 87%

    24 Junho, Segunda-feira

    Tempo Temperatura Precipitação Vento Pressão Humidade
    00:00 +20°C° 0 mm 2 m/s 752 mmHg 87%
    01:00 +20°C° 0 mm 2 m/s 752 mmHg 87%
    02:00 +19°C° 0 mm 2 m/s 752 mmHg 88%
    03:00 +19°C° 0 mm 2 m/s 752 mmHg 88%
    04:00 +21°C° 0 mm 1 m/s 752 mmHg 87%
    05:00 +21°C° 0 mm 1 m/s 752 mmHg 87%
    06:00 +22°C° 0 mm 1 m/s 752 mmHg 81%
    07:00 +24°C° 0 mm 2 m/s 752 mmHg 75%
    08:00 +26°C° 0 mm 2 m/s 752 mmHg 69%
    09:00 +27°C° 0.2 mm 2 m/s 752 mmHg 63%
    10:00 +29°C° 0.2 mm 1 m/s 753 mmHg 57%
    11:00 +30°C° 0.2 mm 1 m/s 753 mmHg 51%
    12:00 +30°C° 0.2 mm 2 m/s 753 mmHg 53%
    13:00 +30°C° 0.2 mm 3 m/s 752 mmHg 54%
    14:00 +30°C° 0.2 mm 4 m/s 752 mmHg 56%
    15:00 +29°C° 0.4 mm 4 m/s 752 mmHg 61%
    16:00 +28°C° 0.4 mm 4 m/s 752 mmHg 67%
    17:00 +27°C° 0.4 mm 4 m/s 752 mmHg 72%
    18:00 +26°C° 0.2 mm 4 m/s 752 mmHg 77%
    19:00 +24°C° 0.2 mm 3 m/s 753 mmHg 82%
    20:00 +22°C° 0.2 mm 3 m/s 753 mmHg 88%
    21:00 +21°C° 0 mm 3 m/s 753 mmHg 90%
    22:00 +20°C° 0 mm 3 m/s 753 mmHg 92%
    23:00 +19°C° 0 mm 3 m/s 753 mmHg 95%

    25 Junho, Terça-feira

    Tempo Temperatura Precipitação Vento Pressão Humidade
    00:00 +19°C° 0 mm 3 m/s 753 mmHg 95%
    01:00 +18°C° 0 mm 3 m/s 753 mmHg 95%
    02:00 +17°C° 0 mm 3 m/s 753 mmHg 95%
    03:00 +17°C° 0 mm 3 m/s 753 mmHg 95%
    04:00 +17°C° 0 mm 3 m/s 753 mmHg 94%
    05:00 +17°C° 0 mm 3 m/s 753 mmHg 94%
    06:00 +18°C° 0 mm 3 m/s 753 mmHg 89%
    07:00 +20°C° 0 mm 3 m/s 754 mmHg 85%
    08:00 +21°C° 0 mm 2 m/s 754 mmHg 80%
    09:00 +24°C° 0 mm 3 m/s 754 mmHg 76%
    10:00 +25°C° 0 mm 3 m/s 754 mmHg 71%
    11:00 +26°C° 0 mm 4 m/s 754 mmHg 67%
    12:00 +27°C° 0 mm 4 m/s 754 mmHg 67%
    13:00 +27°C° 0 mm 4 m/s 753 mmHg 66%
    14:00 +27°C° 0 mm 4 m/s 753 mmHg 65%
    15:00 +26°C° 0.1 mm 4 m/s 753 mmHg 67%
    16:00 +26°C° 0.1 mm 4 m/s 753 mmHg 68%
    17:00 +26°C° 0.1 mm 4 m/s 753 mmHg 70%
    18:00 +23°C° 0.1 mm 4 m/s 753 mmHg 74%
    19:00 +22°C° 0.1 mm 3 m/s 753 mmHg 79%
    20:00 +20°C° 0.1 mm 3 m/s 753 mmHg 84%
    21:00 +19°C° 0 mm 3 m/s 753 mmHg 85%
    22:00 +18°C° 0 mm 3 m/s 753 mmHg 86%
    23:00 +17°C° 0 mm 3 m/s 753 mmHg 87%
    Mostrar mais